Simultaneous Nadir Overpasses (SNOs) Predictions

Prediction of SNOs between AQUA and NOAA-19 Satellite Orbit:

Table of predicted SNOs for the next 14.0 days since TLE Epoch: 2/27/2021
Index Date (AQUA) Time (AQUA) Lat,Lon (AQUA) SZA (AQUA ) Date (NOAA-19) Time (NOAA-19) Lat,Lon (NOAA-19) SZA (NOAA-19 ) Distance(km) Time Diff (sec)
1 02/28/2021 11:31:41 79.11, -17.35 88.06 02/28/2021 11:31:29 79.10, -17.21 88.04 3.27 12
2 03/02/2021 17:05:24 -79.09, 79.35 92.84 03/02/2021 17:04:44 -79.09, 79.49 92.83 2.97 40
3 03/02/2021 17:54:50 79.10,-113.04 87.16 03/02/2021 17:55:40 79.11,-113.12 87.16 1.97 50
4 03/04/2021 22:39:06 79.05, 176.20 86.24 03/04/2021 22:37:53 79.07, 176.09 86.29 3.26 73
5 03/04/2021 23:28:33 -79.08, -16.36 93.73 03/04/2021 23:28:56 -79.08, -16.55 93.72 3.91 23
6 03/07/2021 05:02:17 79.08, 80.23 85.39 03/07/2021 05:02:05 79.07, 80.16 85.40 1.58 12
7 03/09/2021 10:36:00 -79.06, 176.88 95.51 03/09/2021 10:35:21 -79.08, 176.98 95.49 2.71 39
8 03/09/2021 11:25:28 79.11, -15.76 84.54 03/09/2021 11:26:17 79.08, -15.78 84.50 3.75 49
9 03/11/2021 16:09:44 79.07, -86.56 83.61 03/11/2021 16:08:31 79.00, -86.85 83.61 9.62 73



Historial Predications of SNOs between AQUA and NOAA-19
